Regional Weather Roundup
Issued by NWS

Home | Current Version | Previous Version | Text Only | Print | Product List | Glossary Off
Versions: 1 2 3 4 5 6 7 8 9 10 11 12 13 14 15 16 17 18 19 20 21 22 23 24 25 26 27 28 29 30 31 32 33 34 35 36 37 38 39 40 41 42 43 44 45 46 47 48 49 50

000
ASUS43 KMKX 251321
RWRWI

WISCONSIN REGIONAL WEATHER ROUNDUP
NATIONAL WEATHER SERVICE MILWAUKEE/SULLIVAN WI
700 AM CST TUE NOV 25 2014

NOTE: "FAIR" INDICATES FEW OR NO CLOUDS BELOW 12,000 FEET WITH NO
SIGNIFICANT WEATHER AND/OR OBSTRUCTIONS TO VISIBILITY.

WIZ001-002-006>008-014>016-023>028-251400-
NORTHWEST WISCONSIN

CITY           SKY/WX    TMP DP  RH WIND       PRES   REMARKS
SUPERIOR ARPT  CLEAR     11   7  82 NW6       29.98S WCI   2
ASHLAND        PTCLDY     9   6  88 SW5       29.96R WCI   1
HAYWARD        CLOUDY    13   8  81 VRB5      29.95R WCI   5
SIREN          CLEAR      9   6  88 W3        29.99S
CUMBERLAND     LGT SNOW  12   9  85 NW3       29.96S
RICE LAKE      FLURRIES  15   9  79 NW3       29.98S
CHETEK         FLURRIES  15  10  80 W5        29.97S WCI   7
LADYSMITH      FLURRIES  16  11  82 NW9       29.96R WCI   4
EAU CLAIRE     CLOUDY    16   9  74 NW6       29.99R WCI   7
MENOMONIE      CLOUDY    17  10  76 W8        30.00R WCI   6
NEW RICHMOND   CLOUDY    12   9  85 W6        30.00S WCI   3
OSCEOLA        FLURRIES  11  10  93 W6        30.03S WCI   2
$$

WIZ003>005-009-010-017-018-251400-
NORTH CENTRAL WISCONSIN

CITY           SKY/WX    TMP DP  RH WIND       PRES   REMARKS
MANITOWISH WTR LGT SNOW  15  13  89 NW8       29.86R WCI   4
ARBOR VITAE    LGT SNOW  18  14  84 W8        29.85R WCI   8
WOODRUFF       LGT SNOW  18  14  84 W8        29.85R WCI   8
RHINELANDER    LGT SNOW  17  13  84 W7        29.85R FOG     WCI   8
EAGLE RIVER    LGT SNOW  19  13  78 NW9       29.83R WCI   7
LAND O LAKES   FLURRIES  19  14  81 NW7       29.83R WCI  10
PHILLIPS       FLURRIES  14   8  78 NW5       29.89R WCI   6
TOMAHAWK       FLURRIES  16  12  86 CALM      29.89R
MEDFORD        FLURRIES  17  12  82 NW9       29.90R WCI   5
MERRILL        FLURRIES  19  14  82 NW10      29.88R WCI   7
$$

WIZ029-030-035-036-043>047-251400-
CENTRAL WISCONSIN

CITY           SKY/WX    TMP DP  RH WIND       PRES   REMARKS
WAUSAU         FLURRIES  20  14  77 NW9       29.89R WCI   9
MOSINEE        FLURRIES  19  18  93 NW14      29.91R WCI   6
MARSHFIELD     CLOUDY    19  13  77 NW15      29.92R WCI   5
STEVENS POINT  FLURRIES  19  14  84 W8        29.93R WCI   8
WAUPACA        MOCLDY    23  18  82 W8        29.93R WCI  14
WAUTOMA        MOCLDY    20  16  84 NW8       29.95R WCI  10
WISC RAPIDS    CLOUDY    20  12  71 NW14G22   29.96R WCI   7
CAMP DOUGLAS   FLURRIES  19  18  93 W10       29.98R WCI   8
$$

WIZ011>013-019>022-031-037>040-048>050-251400-
NORTHEAST WISCONSIN

CITY           SKY/WX    TMP DP  RH WIND       PRES   REMARKS
ANTIGO         FLURRIES  19  15  86 NW10      29.85R WCI   7
SHAWANO        LGT SNOW  25  22  87 W7        29.89R WCI  17
OCONTO         CLOUDY    23  22  93 W7        29.88R WCI  15
STURGEON BAY   CLOUDY    25  19  80 NW16      29.86R WCI  12
GREEN BAY      LGT SNOW  24  21  88 W13       29.90R FOG     WCI  12
MANITOWOC      FLURRIES  24  22  91 W14       29.89R WCI  12
APPLETON       LGT SNOW  21  19  93 W12       29.90R WCI   9
CLINTONVILLE   LGT SNOW  23  21  93 W7        29.90R WCI  15
OSHKOSH        LGT SNOW  22  18  85 W9        29.92R FOG     WCI  12
$$

WIZ032>034-041-042-053>061-251400-
SOUTHWEST WISCONSIN

CITY           SKY/WX    TMP DP  RH WIND       PRES   REMARKS
LA CROSSE      CLOUDY    20  13  74 NW10      30.02R WCI   9
SPARTA         MOCLDY    18  12  78 W10       30.01R WCI   6
VIROQUA        CLOUDY    18  17  96 W9        29.97R WCI   6
BOSCOBEL       CLOUDY    21  14  74 SW3       30.03R
PRAIRIE DU CHI FLURRIES  18  11  75 W13       30.04R WCI   5
PLATTEVILLE    MOCLDY    16  13  88 CALM      30.02R
$$

WIZ056-057-062-063-064-067-068-251400-
SOUTH CENTRAL WISCONSIN

CITY           SKY/WX    TMP DP  RH WIND       PRES   REMARKS
REEDSBURG      CLOUDY    19  14  82 NW7       29.98R WCI   9
BARABOO/DELLS  CLOUDY    19  15  83 W7        29.98R WCI  10
LONE ROCK      CLOUDY    22  14  71 W9        30.02R WCI  12
MINERAL POINT  FAIR      18  14  86 W9        29.98R WCI   6
MADISON        MOCLDY    19  15  84 W6        29.97R WCI  11
MIDDLETON      PTCLDY    20  17  89 W12       29.98R WCI   8
WATERTOWN      CLOUDY    21  19  89 W7        29.95R WCI  13
MONROE         CLEAR     16  14  93 W14       29.98R WCI   1
JANESVILLE     PTCLDY    19  14  79 W7        29.98R WCI  10
$$

WIZ051-052-058>065-066-070>072-251400-
SOUTHEAST WISCONSIN

CITY           SKY/WX    TMP DP  RH WIND       PRES   REMARKS
MILWAUKEE      CLOUDY    25  18  74 W13       29.94R WCI  14
WAUKESHA       CLOUDY    21  18  86 W10       29.95R WCI  10
MILWAUKEE/TIMM CLOUDY    23  18  80 W12       29.96R WCI  12
RACINE         CLOUDY    22  17  81 W10       29.96R WCI  11
BURLINGTON     MOCLDY    19  16  86 W12       29.96R WCI   7
KENOSHA        CLOUDY    22  17  81 W14       29.96R WCI   9
FOND DU LAC    FLURRIES  22  17  81 W14       29.92R WCI   9
SHEBOYGAN      LGT SNOW  23  19  85 W12       29.91R FOG     WCI  12
WEST BEND      FLURRIES  23  19  86 W8        29.92R WCI  14
JUNEAU         CLOUDY    21  18  87 W7        29.95R WCI  12
$$

LSZ147-162-251400-
LAKE SUPERIOR

STATION/POSITION TIME  TEMP    WIND        PRES    WAVE
                       AIR SEA DIR/SP/G            HT/PER
                 (UTC) (F)     (DEG/KT/KT) (MB)    (FT/S)
DEVILS ISLAND    1300   19     280/  9/ 12 1015.0R
PORT WING        1200   19     290/ 11/ 14 1014.6R
SAXON HARBOR     1240   19     240/  6/ 10 1013.9R
$$

LMZ867-665-643>646-251400-
LAKE MICHIGAN

STATION/POSITION TIME  TEMP    WIND        PRES    WAVE
                       AIR SEA DIR/SP/G            HT/PER
                 (UTC) (F)     (DEG/KT/KT) (MB)    (FT/S)
CHAMBERS ISLAND  1200   26     290/  8/ 19 1009.8R
N MID LAKE BUOY  1250   29 42  290/ 23/ 29 1008.5R   5/ 5
NORTHPORT PIER   1227   26     300/ 18       N/A
KEWAUNEE LAKESHO 1300   24     290/  9/ 13 1010.7R
SHEBOYGAN LAKESH 1300   24 37  290/ 13/ 16 1013.8R
PORT WASHINGTON  1200   25     290/ 10/ 14 1013.2
MILWAUKEE LAKESH 1300   25     280/ 10/ 13   N/A
S MID LAKE BUOY  1250   28 42  270/ 19/ 23 1013.8R   5/ 6
KENOSHA   LAKESH 1300   23     270/  9/ 16 1014.9R
$$

TC  - TEMPERATURE IN CELSIUS
VSB - VISIBILITY IN STATUTE MILES
WCI - WIND CHILL INDEX
HX  - HEAT INDEX




USA.gov is the U.S. government's official web portal to all federal, state and local government web resources and services.